Location: Ammareddip?lem
(16.9681°N, 80.4999°E)
Time: 06:23:50
(UTC+00:00)

Envisat - Pass Details

Date: 24 October 2021
Orbit: 764 x 766 km, 98.2° (Epoch: 30 November)

Event Time Altitude Azimuth Distance (km) Brightness Sun altitude
Rises 22:48:18 0° 28° (NNE) 3,222 6.5 -25.7°
Reaches altitude 10° 22:50:53 10° 40° (NE) 2,295 5.9 -25.1°
Maximum altitude 22:55:15 29° 100° (E) 1,364 4.9 -24.0°
Drops below altitude 10° 22:59:36 10° 159° (SSE) 2,291 5.8 -23.0°
Sets 23:02:09 0° 170° (S) 3,215 6.4 -22.4°
